Regional Weather Roundup
Issued by NWS Green Bay, WI

Home | Current Version | Previous Version | Graphics & Text | Print | Product List | Glossary Off
Versions: 1 2 3 4 5 6 7 8 9 10 11 12 13 14 15 16 17 18 19 20 21 22 23 24 25 26 27 28 29 30 31 32 33 34 35 36 37 38 39 40 41 42 43 44 45 46 47 48 49 50

000
ASUS43 KGRB 240811
RWRGRB

NORTH-CENTRAL AND NORTHEAST WISCONSIN REGIONAL WEATHER ROUNDUP
NATIONAL WEATHER SERVICE GREEN BAY WI
300 AM CDT TUE OCT 24 2017

WIZ005-009-010>012-018-019-240900-
NORTH CENTRAL WISCONSIN

CITY           SKY/WX    TMP DP  RH WIND       PRES   REMARKS
IRONWOOD       LGT RAIN  44  43  96 NW12G22   29.62F
MANITOWISH WTR DRIZZLE   41  41 100 NW12G20   29.58F
ARBOR VITAE    DRIZZLE   43  41  95 NW12G24   29.57F
EAGLE RIVER    RAIN      42  42 100 NW14G22   29.53F
LAND O LAKES   RAIN      44  43  97 NW7G16    29.55F
RHINELANDER    CLOUDY    42  42 100 NW12G28   29.55F
PHILLIPS       CLOUDY    40  38  95 NW12G18   29.62F
ANTIGO         LGT RAIN  43  42  97 N15G23    29.52S
TOMAHAWK       LGT RAIN  41  39  95 NW14G23   29.58F
MERRILL        LGT RAIN  42  42  98 N10G20    29.57S
$$

WIZ013-073-240900-
NORTHEAST WISCONSIN

CITY           SKY/WX    TMP DP  RH WIND       PRES   REMARKS
IRON MOUNTAIN  CLOUDY    49  41  74 NW13      29.44F
MARINETTE      NOT AVBL
OCONTO         CLOUDY    49  41  73 NW5       29.45F
$$

WIZ017-030-035>037-045-240900-
CENTRAL WISCONSIN

CITY           SKY/WX    TMP DP  RH WIND       PRES   REMARKS
MEDFORD        CLOUDY    41  39  91 NW17      29.60S
WAUSAU         LGT RAIN  43  41  93 NW15G25   29.54F
MOSINEE        RAIN      43  41  93 NW17G23   29.57S
MARSHFIELD     LGT RAIN  43  39  86 NW14G25   29.58F
WISC RAPIDS    LGT RAIN  45  42  89 N13G25    29.58S
STEVENS POINT  LGT RAIN  43  42  98 NW10G23   29.56S
WAUPACA        LGT RAIN  49  47  92 NW13G22   29.52R
SHAWANO        CLOUDY    52  46  79 NW12G17   29.48F
CLINTONVILLE   RAIN      48  46  93 NW8       29.49F
WAUTOMA        LGT RAIN N/A N/A N/A NW20      29.53S
$$

WIZ038-039-048-051-240900-
FOX VALLEY

CITY           SKY/WX    TMP DP  RH WIND       PRES   REMARKS
NWS GREEN BAY  CLOUDY    50  46  86 NW9       29.47S
APPLETON       DRIZZLE   48  46  93 NW10      29.47F
OSHKOSH        LGT RAIN  50  48  93 NW10      29.48F
FOND DU LAC    LGT RAIN  50  46  86 NW13      29.49F
$$

WIZ022-050-052-240900-
EAST CENTRAL WISCONSIN

CITY           SKY/WX    TMP DP  RH WIND       PRES   REMARKS
EPHRAIM        LGT RAIN  46  41  82 NW14G21   29.41F
WASHINGTON ISL LGT RAIN  46  42  84 NW20G28   29.37F
STURGEON BAY   LGT RAIN  49  44  83 N16       29.44F
MANITOWOC      LGT RAIN  49  45  86 NW10      29.46F
SHEBOYGAN      CLOUDY    50  47  89 NW12      29.46F
$$

LMZ563-521-522-541>543-240900-
LAKESHORE

STATION/POSITION TIME  TEMP    WIND        PRES    VSBY  WAVE
                       AIR SEA DIR/SP/G                  HT/PER
                 (UTC) (F)     (DEG/KT/KT) (MB)    (MI)  (FT/S)
SHEBOYGAN LKSHOR 0800   51     300/ 10/ 12  997.6F
KEWAUNEE LKSHORE 0748   49     320/  4/  6  996.8F
NORTHPORT PIER   0801   50     320/ 28      994.9
N MID LAKE BUOY  0650   49 56  340/ 29/ 35  994.5          4/ 5
S GREEN BAY BUOY 0800   53 58  330/ 16/ 19  997.4
SISTER BAY LKSHO 0804   48     330/ 25/ 30   N/A
MENOMINEE LKSHOR 0748   48     290/  5/  8  996.9F
$$




USA.gov is the U.S. government's official web portal to all federal, state and local government web resources and services.